Theta_e
285 285 285 285 285 286 286 287 288 288 287 287 288 289 290 289 287 287 288 291 290 291
284 283 282 282 283 283 284 286 286 286 286 286 286 286 287 286 286 286 286 287 288 290
284 284 282 281 281 281 282 283 283 284 284 285 285 285 284 284 284 284 285 286 285 286
282 283 282 281 281 281 281 281 282 282 282 283 283 283 283 283 284 283 284 284 284 285
282 282 281 281 280 280 279 280 280 281 281 282 282 282 282 283 284 283 284 284 284 284
280 279 279 279 280 280 280 279 279 279 279 280 281 281 282 282 283 283 284 285 285 285
278 278 278 279 278 279 279 278 278 278 279 279 280 280 281 282 282 282 283 284 285 285
278 279 279 278 279 278 278 278 278 277 277 277 277 278 279 280 280 281 282 283 284 284
278 279 279 278 278 278 278 277 277 277 277 276 277 280 281 281 279 279 280 280 282 283
276 276 276 277 276 275 275 275 275 275 275 275 275 279 280 280 278 277 277 278 280 281
274 273 273 273 272 272 272 272 272 272 272 272 273 277 278 278 276 275 276 276 278 279
271 269 269 268 268 268 268 268 268 269 268 268 268 273 273 273 271 272 272 274 275 276
269 266 266 266 265 265 265 265 266 265 265 265 264 269 270 271 269 268 269 270 272 275
266 264 264 263 264 263 262 263 262 262 263 263 264 264 269 270 269 268 268 269 270 273
Wind_Speed
9 7 6 7 6 6 6 6 7 8 7 7 7 7 6 3 4 5 6 11 8 9
7 8 7 8 5 4 5 7 9 9 9 8 7 7 7 4 6 5 6 7 8 9
6 6 5 4 6 6 5 6 7 8 9 9 8 7 7 5 6 6 5 5 7 8
5 5 5 4 4 5 6 6 7 7 7 8 8 7 7 7 7 7 7 6 7 8
4 6 6 6 7 7 7 6 6 7 7 7 7 7 7 8 9 8 8 8 7 9
4 5 6 7 7 7 7 7 8 7 8 9 8 8 9 9 9 9 9 9 10 11
3 4 5 6 6 6 7 7 8 8 10 11 11 11 11 11 11 11 11 10 10 11
5 7 6 8 8 9 7 10 11 11 11 11 11 10 11 11 11 12 14 14 13 13
7 9 10 11 12 12 13 13 13 14 14 15 12 24 27 23 15 16 16 17 17 14
6 8 9 9 10 13 15 15 16 16 16 17 18 28 30 30 17 17 18 19 18 17
5 5 6 11 13 15 15 16 16 17 17 18 18 31 32 32 20 18 20 19 20 20
5 7 11 13 14 14 14 15 16 17 18 18 20 29 33 30 19 20 22 20 21 21
7 7 11 13 14 14 13 16 14 16 16 19 20 25 30 26 14 18 16 20 22 29
7 10 11 13 12 13 14 16 15 17 15 16 16 17 28 27 16 14 15 15 15 15
Wind_Direction
41 47 47 36 22 13 6 350 343 344 347 354 350 338 315 284 260 238 237 241 238 246
42 44 33 19 19 358 343 353 348 347 357 352 348 343 333 312 299 277 256 247 242 244
31 39 37 23 11 354 328 339 344 346 348 349 347 340 338 321 301 295 278 259 246 252
18 8 9 7 344 333 327 334 339 330 333 332 335 334 332 314 300 295 287 280 261 258
7 358 344 339 331 335 329 323 315 311 312 303 310 317 313 309 305 292 289 278 270 266
349 333 320 318 318 314 308 305 312 313 306 304 295 291 291 289 288 284 277 275 273 272
270 276 288 289 284 285 283 283 288 288 293 297 298 294 286 278 275 272 272 266 260 261
334 328 317 317 315 309 302 306 299 300 296 292 290 289 291 286 283 278 278 270 263 259
334 323 317 315 314 310 307 305 301 297 296 293 289 293 297 297 292 290 286 282 276 264
312 302 302 306 309 308 305 303 298 293 292 290 289 291 295 295 293 292 285 280 278 273
303 307 318 314 307 303 301 299 298 295 295 292 288 294 298 299 295 288 283 281 280 275
349 323 311 302 299 299 298 296 294 291 293 293 292 302 301 302 296 286 282 280 275 271
313 296 296 296 297 295 288 287 290 290 289 289 291 297 299 298 287 284 283 281 277 273
289 291 288 287 290 292 290 289 289 286 287 285 285 289 293 294 289 287 287 284 283 279